Howell, MI

10:52 PM EDT on May 22, 2017 (GMT -0400)
Livingston County

Weather History for KOZW - March, 2012

Change the Weather History Date:

Sunday, March 25, 2012

  Actual Average Record
Temperature  
Mean Temperature 57 °F -  
Max Temperature 68 °F 47 °F 68 °F (2004)
Min Temperature 47 °F 30 °F 14 °F (2001)
Degree Days  
Heating Degree Days 8    
Growing Degree Days 7 (Base 50)    
Moisture  
Dew Point 49 °F    
Average Humidity 82    
Maximum Humidity 99    
Minimum Humidity 47    
Precipitation  
Precipitation 0.00 in - - ()
Sea Level Pressure  
Sea Level Pressure 29.92 in    
Wind  
Wind Speed 5 mph (NNW)    
Max Wind Speed 14 mph    
Max Gust Speed 23 mph    
Visibility 6 miles    
Events Rain    
Averages and records for this station are not official NWS values.
T = Trace of Precipitation, MM = Missing Value Source: NWS Daily Summary

Daily Weather History Graph

Daily Weather History Graph

Search for Another Location

Airport or City:

Trip Planner

Search our weather history database for the weather conditions in past years. The results will help you decide how hot, cold, wet, or windy it might be!

Date:

Astronomy

Mar. 25, 2012 Rise Set
Actual Time 7:29 AM EDT 7:54 PM EDT
Civil Twilight 7:01 AM EDT 8:22 PM EDT
Nautical Twilight 6:28 AM EDT 8:56 PM EDT
Astronomical Twilight 5:53 AM EDT 9:30 PM EDT
Moon 8:36 AM EDT (3/25) 11:14 PM EDT (3/25)
Length of Visible Light 13h 21m
Length of Day
12h 24m
Waxing Crescent, 8% of the Moon is Illuminated
Mar 25
Waxing Crescent
Mar 30
First Quarter
Apr 6
Full
Apr 13
Last Quarter
Apr 21
New

Hourly Weather History & Observations

Time (EDT) Temp. Windchill Dew Point Humidity Pressure Visibility Wind Dir Wind Speed Gust Speed Precip Events Conditions
12:14 AM 50.9 °F - 50.2 °F 97% 29.87 in 1.8 mi NNW 6.9 mph - N/A   Overcast
12:35 AM 50.5 °F - 49.8 °F 97% 29.87 in 2.0 mi Calm Calm - N/A   Overcast
12:55 AM 50.0 °F - 49.3 °F 97% 29.88 in 2.0 mi Calm Calm - N/A   Overcast
1:14 AM 49.6 °F - 49.1 °F 98% 29.88 in 1.8 mi Calm Calm - N/A   Overcast
1:35 AM 49.8 °F - 49.1 °F 97% 29.89 in 1.2 mi NNW 3.5 mph - N/A Rain Light Rain
1:54 AM 49.6 °F - 49.1 °F 98% 29.90 in 1.2 mi NNW 5.8 mph - N/A   Overcast
2:14 AM 49.3 °F - 48.6 °F 97% 29.89 in 1.2 mi Calm Calm - N/A   Overcast
2:19 AM 49.3 °F - 48.7 °F 98% 29.88 in 1.0 mi Calm Calm - N/A   Overcast
2:55 AM 49.5 °F - 49.1 °F 99% 29.88 in 1.0 mi South 4.6 mph - N/A   Overcast
3:14 AM 49.8 °F - 49.5 °F 99% 29.90 in 1.2 mi NNW 8.1 mph - N/A   Overcast
3:34 AM 50.0 °F - 49.5 °F 98% 29.89 in 1.2 mi NNW 5.8 mph - N/A   Overcast
3:55 AM 50.0 °F - 49.5 °F 98% 29.89 in 0.8 mi NW 6.9 mph - N/A   Overcast
4:14 AM 50.0 °F - 49.3 °F 97% 29.89 in 0.8 mi NW 6.9 mph - N/A   Overcast
4:34 AM 49.8 °F - 48.9 °F 97% 29.89 in 0.5 mi NW 4.6 mph - N/A Rain Rain
4:55 AM 49.5 °F - 48.7 °F 97% 29.90 in 1.2 mi WNW 8.1 mph - N/A   Heavy Drizzle
5:14 AM 49.1 °F - 48.2 °F 97% 29.90 in 2.0 mi NW 6.9 mph - N/A Rain Heavy Rain
5:34 AM 49.3 °F - 48.4 °F 97% 29.90 in 3.0 mi NW 6.9 mph - N/A   Overcast
5:55 AM 48.7 °F - 47.5 °F 95% 29.91 in 4.0 mi NW 8.1 mph - N/A   Overcast
6:14 AM 48.6 °F - 47.3 °F 95% 29.89 in 4.0 mi NW 5.8 mph - N/A   Overcast
6:35 AM 48.7 °F - 47.3 °F 95% 29.90 in 4.0 mi NW 4.6 mph - N/A   Overcast
7:14 AM 48.6 °F - 47.3 °F 95% 29.91 in 4.0 mi NNW 5.8 mph - N/A   Overcast
7:35 AM 48.2 °F - 46.8 °F 95% 29.90 in 4.0 mi NW 5.8 mph - N/A   Mostly Cloudy
7:55 AM 47.7 °F - 46.6 °F 96% 29.92 in 2.5 mi NNW 4.6 mph - N/A   Mist
8:14 AM 48.0 °F - 46.9 °F 96% 29.92 in 2.0 mi Calm Calm - N/A   Overcast
8:35 AM 48.6 °F - 47.7 °F 97% 29.93 in 2.5 mi North 3.5 mph - N/A   Overcast
8:54 AM 48.6 °F - 47.5 °F 96% 29.93 in 3.0 mi NNW 4.6 mph - N/A   Mist
9:14 AM 49.1 °F - 47.8 °F 95% 29.95 in 5.0 mi NNW 4.6 mph - N/A   Scattered Clouds
9:35 AM 51.1 °F - 49.3 °F 94% 29.95 in 7.0 mi NNW 6.9 mph - N/A   Clear
9:54 AM 52.7 °F - 50.0 °F 91% 29.95 in 7.0 mi NNW 6.9 mph 16.1 mph N/A   Scattered Clouds
10:15 AM 54.0 °F - 49.5 °F 85% 29.95 in 10.0 mi North 8.1 mph - N/A   Clear
10:35 AM 55.2 °F - 49.1 °F 80% 29.95 in 10.0 mi North 4.6 mph - N/A   Clear
10:54 AM 56.5 °F - 48.9 °F 76% 29.96 in 10.0 mi North 5.8 mph - N/A   Clear
11:15 AM 57.6 °F - 48.4 °F 71% 29.96 in 10.0 mi NNW 8.1 mph - N/A   Clear
11:35 AM 59.5 °F - 49.3 °F 69% 29.96 in 10.0 mi NNW 6.9 mph - N/A   Clear
11:54 AM 60.1 °F - 49.5 °F 68% 29.97 in 10.0 mi NNW 6.9 mph - N/A   Clear
12:15 PM 61.0 °F - 49.1 °F 65% 29.97 in 10.0 mi North 10.4 mph - N/A   Clear
12:34 PM 61.2 °F - 50.0 °F 67% 29.97 in 10.0 mi NNW 8.1 mph - N/A   Clear
12:54 PM 61.9 °F - 50.4 °F 66% 29.97 in 10.0 mi North 5.8 mph - N/A   Clear
1:15 PM 62.8 °F - 50.5 °F 64% 29.96 in 10.0 mi NNW 8.1 mph - N/A   Clear
1:34 PM 64.4 °F - 51.6 °F 63% 29.96 in 10.0 mi North 5.8 mph - N/A   Clear
1:54 PM 65.1 °F - 51.4 °F 61% 29.95 in 10.0 mi NW 9.2 mph - N/A   Clear
2:15 PM 65.8 °F - 50.7 °F 58% 29.95 in 10.0 mi North 9.2 mph - N/A   Clear
2:34 PM 66.4 °F - 51.4 °F 59% 29.95 in 10.0 mi North 5.8 mph - N/A   Clear
2:55 PM 67.1 °F - 51.1 °F 56% 29.94 in 10.0 mi NW 10.4 mph - N/A   Clear
3:14 PM 67.5 °F - 50.2 °F 54% 29.94 in 10.0 mi NNW 10.4 mph 17.3 mph N/A   Clear
3:34 PM 67.5 °F - 49.6 °F 53% 29.93 in 10.0 mi NNW 8.1 mph 18.4 mph N/A   Scattered Clouds
3:55 PM 67.3 °F - 47.5 °F 49% 29.93 in 10.0 mi NNW 13.8 mph 23.0 mph N/A   Scattered Clouds
4:14 PM 66.7 °F - 46.9 °F 49% 29.93 in 10.0 mi NNW 11.5 mph 18.4 mph N/A   Scattered Clouds
4:35 PM 66.0 °F - 46.8 °F 50% 29.93 in 10.0 mi NNW 6.9 mph 17.3 mph N/A   Clear
4:54 PM 68.0 °F - 46.9 °F 47% 29.93 in 10.0 mi NNW 5.8 mph 17.3 mph N/A   Scattered Clouds
5:14 PM 67.5 °F - 47.8 °F 49% 29.93 in 10.0 mi NNW 8.1 mph - N/A   Scattered Clouds
5:35 PM 68.0 °F - 48.4 °F 49% 29.93 in 10.0 mi NNW 9.2 mph - N/A   Scattered Clouds
5:54 PM 66.2 °F - 48.4 °F 53% 29.93 in 10.0 mi NNW 8.1 mph - N/A   Scattered Clouds
6:15 PM 67.5 °F - 49.1 °F 52% 29.93 in 10.0 mi NNW 13.8 mph 18.4 mph N/A   Scattered Clouds
6:34 PM 66.6 °F - 48.2 °F 52% 29.94 in 10.0 mi NW 11.5 mph 19.6 mph N/A   Scattered Clouds
6:54 PM 65.1 °F - 47.7 °F 53% 29.95 in 10.0 mi NNW 9.2 mph 16.1 mph N/A   Clear
7:14 PM 63.7 °F - 44.1 °F 49% 29.95 in 10.0 mi North 10.4 mph 17.3 mph N/A   Clear
7:34 PM 61.9 °F - 33.8 °F 35% 29.96 in 10.0 mi North 9.2 mph - N/A   Clear
7:55 PM 60.1 °F - 32.4 °F 35% 29.97 in 10.0 mi NNW 9.2 mph - N/A   Clear
8:14 PM 59.2 °F - 32.0 °F 36% 29.98 in 10.0 mi NNW 6.9 mph - N/A   Clear
8:34 PM 57.6 °F - 33.6 °F 41% 29.99 in 10.0 mi NNW 5.8 mph - N/A   Clear
8:55 PM 56.8 °F - 34.5 °F 43% 30.00 in 10.0 mi North 8.1 mph - N/A   Clear
9:14 PM 55.8 °F - 33.3 °F 43% 30.01 in 10.0 mi North 6.9 mph - N/A   Clear
9:55 PM 54.3 °F - 33.4 °F 45% 30.04 in 10.0 mi North 8.1 mph - N/A   Clear
10:14 PM 52.0 °F - 32.5 °F 48% 30.05 in 10.0 mi NNW 13.8 mph 20.7 mph N/A   Clear
10:35 PM 50.2 °F - 25.7 °F 39% 30.06 in 10.0 mi North 10.4 mph 20.7 mph N/A   Clear
10:55 PM 48.6 °F - 26.8 °F 43% 30.07 in 10.0 mi North 9.2 mph - N/A   Clear
11:14 PM 47.3 °F - 27.5 °F 46% 30.08 in 10.0 mi North 5.8 mph - N/A   Clear
11:35 PM 46.0 °F 43.1 °F 28.8 °F 51% 30.09 in 10.0 mi NNW 5.8 mph - N/A   Clear
11:54 PM 45.7 °F 41.5 °F 29.7 °F 54% 30.09 in 10.0 mi NNW 8.1 mph - N/A   Clear